EZY8732 LHBP-EGKK

Flight info

Callsign EZY8732
Flight time 2h 12m
Altitude 36000
Route BADOV DCT MAVOR DCT KATQA DCT RAPET DCT MASEK DCT TIVUN DCT BREDA DCT GALSO Q63 ARREK Y4 TEBRA
Aircraft A320/M-SDE3FGHIRWY/LB1

Departure

Time 2026-05-05 17:58
Airport Budapest Liszt Ferenc International Airport (LHBP)

Arrival

Time 2026-05-05 20:10
Airport London Gatwick Airport (EGKK)
Time Latitude Longitude Altitude Speed Heading
2026-05-05 17:28 47.43446 19.26566 463 ft 0 kts 221°
2026-05-05 17:50 47.43453 19.26575 466 ft 4 kts 224°
2026-05-05 17:50 47.43471 19.26605 466 ft 4 kts 242°
2026-05-05 17:50 47.43478 19.26640 469 ft 4 kts 284°
2026-05-05 17:51 47.43472 19.26660 464 ft 1 kts 313°
2026-05-05 17:51 47.43470 19.26662 464 ft 0 kts 313°
2026-05-05 17:53 47.43507 19.26603 469 ft 10 kts 311°
2026-05-05 17:53 47.43551 19.26530 469 ft 9 kts 312°
2026-05-05 17:53 47.43589 19.26469 469 ft 8 kts 313°
2026-05-05 17:54 47.43648 19.26375 469 ft 12 kts 313°
2026-05-05 17:54 47.43714 19.26372 469 ft 9 kts 33°
2026-05-05 17:54 47.43764 19.26415 469 ft 8 kts 10°
2026-05-05 17:54 47.43807 19.26384 469 ft 8 kts 313°
2026-05-05 17:55 47.43850 19.26313 469 ft 13 kts 312°
2026-05-05 17:55 47.43920 19.26219 469 ft 14 kts 343°
2026-05-05 17:55 47.43977 19.26237 466 ft 5 kts 34°
2026-05-05 17:55 47.43997 19.26264 470 ft 3 kts 43°
2026-05-05 17:56 47.44014 19.26288 470 ft 10 kts 44°
2026-05-05 17:56 47.44058 19.26385 475 ft 8 kts 69°
2026-05-05 17:56 47.44066 19.26467 474 ft 15 kts 87°
2026-05-05 17:56 47.44011 19.26614 478 ft 18 kts 132°
2026-05-05 17:57 47.43900 19.26796 475 ft 44 kts 133°
2026-05-05 17:57 47.43529 19.27396 471 ft 113 kts 132°
2026-05-05 17:57 47.42864 19.28472 473 ft 165 kts 132°
2026-05-05 17:57 47.42111 19.29735 1095 ft 164 kts 124°
2026-05-05 17:58 47.41612 19.31268 1736 ft 167 kts 116°
2026-05-05 17:58 47.41039 19.32855 2172 ft 185 kts 119°
2026-05-05 17:58 47.40357 19.34610 2491 ft 208 kts 120°
2026-05-05 17:58 47.39587 19.36572 2897 ft 230 kts 120°
2026-05-05 17:59 47.38791 19.38615 3690 ft 235 kts 118°
2026-05-05 17:59 47.38310 19.40999 4245 ft 254 kts 87°
2026-05-05 17:59 47.38903 19.43471 5009 ft 262 kts 54°
2026-05-05 17:59 47.40138 19.45471 5901 ft 265 kts 42°
2026-05-05 18:00 47.41555 19.47246 6787 ft 268 kts 39°
2026-05-05 18:00 47.42991 19.48979 7646 ft 272 kts 39°
2026-05-05 18:00 47.44450 19.50813 8501 ft 275 kts 41°
2026-05-05 18:00 47.45880 19.52720 9334 ft 278 kts 43°
2026-05-05 18:01 47.47279 19.54682 10135 ft 282 kts 44°
2026-05-05 18:01 47.48733 19.56781 10514 ft 304 kts 45°
2026-05-05 18:01 47.50289 19.59077 10829 ft 324 kts 45°
2026-05-05 18:01 47.51904 19.61488 11485 ft 331 kts 45°
2026-05-05 18:02 47.53515 19.63905 12207 ft 335 kts 45°
2026-05-05 18:02 47.55347 19.66081 12915 ft 339 kts 29°
2026-05-05 18:02 47.57568 19.67275 13606 ft 343 kts
2026-05-05 18:02 47.59955 19.67236 14290 ft 346 kts 348°
2026-05-05 18:03 47.62199 19.65922 14939 ft 350 kts 327°
2026-05-05 18:03 47.64013 19.63558 15579 ft 353 kts 313°
2026-05-05 18:03 47.65687 19.60863 16226 ft 356 kts 312°
2026-05-05 18:03 47.67372 19.58141 16851 ft 359 kts 312°
2026-05-05 18:04 47.69066 19.55400 17455 ft 362 kts 312°
2026-05-05 18:04 47.70781 19.52629 18045 ft 366 kts 313°
2026-05-05 18:04 47.72511 19.49836 18626 ft 369 kts 313°
2026-05-05 18:04 47.74242 19.47044 19197 ft 372 kts 313°
2026-05-05 18:05 47.76011 19.44189 19755 ft 375 kts 313°
2026-05-05 18:05 47.77790 19.41314 20324 ft 378 kts 313°
2026-05-05 18:05 47.79555 19.38456 20868 ft 381 kts 312°
2026-05-05 18:05 47.81360 19.35531 21410 ft 384 kts 312°
2026-05-05 18:06 47.83180 19.32580 21931 ft 387 kts 312°
2026-05-05 18:06 47.83775 19.31615 22096 ft 388 kts 312°
2026-05-05 18:06 47.86840 19.26642 22913 ft 394 kts 312°
2026-05-05 18:06 47.88698 19.23622 23395 ft 396 kts 312°
2026-05-05 18:07 47.90571 19.20569 23845 ft 399 kts 312°
2026-05-05 18:07 47.92454 19.17492 24296 ft 402 kts 312°
2026-05-05 18:07 47.94320 19.14431 24729 ft 404 kts 310°
2026-05-05 18:07 47.95992 19.11038 25145 ft 406 kts 301°
2026-05-05 18:08 47.97271 19.07264 25524 ft 409 kts 291°
2026-05-05 18:08 47.98144 19.03191 25895 ft 411 kts 285°
2026-05-05 18:08 47.98892 18.99087 26245 ft 415 kts 285°
2026-05-05 18:08 47.99656 18.94907 26607 ft 417 kts 285°
2026-05-05 18:09 48.00425 18.90715 26969 ft 419 kts 285°
2026-05-05 18:09 48.01238 18.86521 27334 ft 421 kts 289°
2026-05-05 18:09 48.02404 18.82555 27679 ft 423 kts 298°
2026-05-05 18:09 48.04011 18.78855 28022 ft 424 kts 308°
2026-05-05 18:10 48.05993 18.75544 28343 ft 426 kts 314°
2026-05-05 18:10 48.08058 18.72339 28653 ft 429 kts 314°
2026-05-05 18:10 48.10101 18.69142 28973 ft 430 kts 314°
2026-05-05 18:10 48.12171 18.65887 29251 ft 432 kts 313°
2026-05-05 18:11 48.14254 18.62608 29530 ft 434 kts 313°
2026-05-05 18:11 48.16323 18.59351 29802 ft 436 kts 313°
2026-05-05 18:11 48.18423 18.56042 30067 ft 438 kts 313°
2026-05-05 18:11 48.20536 18.52709 30326 ft 439 kts 313°
2026-05-05 18:12 48.22647 18.49379 30572 ft 441 kts 313°
2026-05-05 18:12 48.24748 18.46064 30807 ft 443 kts 313°
2026-05-05 18:12 48.26881 18.42698 31026 ft 444 kts 313°
2026-05-05 18:12 48.29018 18.39316 31260 ft 445 kts 313°
2026-05-05 18:13 48.31119 18.35986 31561 ft 444 kts 313°
2026-05-05 18:13 48.33243 18.32614 31868 ft 443 kts 313°
2026-05-05 18:13 48.35361 18.29243 32161 ft 443 kts 313°
2026-05-05 18:13 48.37486 18.25859 32453 ft 442 kts 313°
2026-05-05 18:14 48.39598 18.22499 32734 ft 442 kts 313°
2026-05-05 18:14 48.40999 18.20268 32916 ft 442 kts 313°
2026-05-05 18:14 48.43801 18.15796 33277 ft 441 kts 313°
2026-05-05 18:14 48.45224 18.13518 33464 ft 441 kts 313°
2026-05-05 18:15 48.47294 18.10197 33746 ft 440 kts 313°
2026-05-05 18:15 48.49387 18.06834 34035 ft 439 kts 313°
2026-05-05 18:15 48.51479 18.03475 34311 ft 439 kts 313°
2026-05-05 18:15 48.53573 18.00113 34586 ft 438 kts 313°
2026-05-05 18:16 48.55662 17.96751 34849 ft 437 kts 313°
2026-05-05 18:16 48.57744 17.93397 35097 ft 437 kts 313°
2026-05-05 18:16 48.59797 17.90086 35318 ft 437 kts 313°
2026-05-05 18:16 48.61879 17.86722 35562 ft 436 kts 313°
2026-05-05 18:17 48.63956 17.83364 35811 ft 435 kts 313°
2026-05-05 18:17 48.66029 17.80009 35973 ft 435 kts 313°
2026-05-05 18:17 48.68066 17.76714 36011 ft 433 kts 313°
2026-05-05 18:18 48.72180 17.70040 36008 ft 433 kts 313°
2026-05-05 18:18 48.76287 17.63336 36009 ft 433 kts 313°
2026-05-05 18:19 48.80369 17.56658 36008 ft 434 kts 313°
2026-05-05 18:19 48.84512 17.50028 36009 ft 434 kts 315°
2026-05-05 18:20 48.88851 17.43635 36014 ft 434 kts 316°
2026-05-05 18:20 48.93199 17.37333 36019 ft 433 kts 316°
2026-05-05 18:21 48.97525 17.30931 36020 ft 433 kts 315°
2026-05-05 18:21 49.01544 17.24114 36018 ft 432 kts 303°
2026-05-05 18:22 49.04179 17.15958 36012 ft 431 kts 291°
2026-05-05 18:22 49.06423 17.07463 36007 ft 432 kts 292°
2026-05-05 18:23 49.08666 16.99003 36001 ft 432 kts 292°
2026-05-05 18:23 49.10909 16.90495 35999 ft 432 kts 292°
2026-05-05 18:24 49.13143 16.81954 35997 ft 432 kts 291°
2026-05-05 18:24 49.15356 16.73453 36001 ft 431 kts 291°
2026-05-05 18:25 49.17557 16.64971 36000 ft 431 kts 291°
2026-05-05 18:25 49.19760 16.56455 35997 ft 431 kts 291°
2026-05-05 18:26 49.21967 16.47892 35997 ft 432 kts 291°
2026-05-05 18:26 49.24158 16.39376 35991 ft 432 kts 291°
2026-05-05 18:27 49.26360 16.30785 35996 ft 432 kts 291°
2026-05-05 18:27 49.28545 16.22191 35994 ft 433 kts 291°
2026-05-05 18:28 49.31813 16.09312 35997 ft 433 kts 291°
2026-05-05 18:28 49.33994 16.00675 35995 ft 434 kts 291°
2026-05-05 18:29 49.36150 15.92093 36002 ft 433 kts 291°
2026-05-05 18:29 49.38321 15.83431 36002 ft 434 kts 291°
2026-05-05 18:30 49.40477 15.74775 35999 ft 434 kts 291°
2026-05-05 18:30 49.42621 15.66161 36000 ft 434 kts 291°
2026-05-05 18:31 49.44759 15.57523 35998 ft 433 kts 291°
2026-05-05 18:31 49.46905 15.48824 35992 ft 433 kts 290°
2026-05-05 18:32 49.49029 15.40169 36000 ft 434 kts 290°
2026-05-05 18:32 49.51160 15.31456 35996 ft 434 kts 290°
2026-05-05 18:33 49.53278 15.22795 36000 ft 434 kts 290°
2026-05-05 18:33 49.55401 15.14081 36001 ft 434 kts 290°
2026-05-05 18:34 49.57496 15.05411 36005 ft 434 kts 290°
2026-05-05 18:34 49.59592 14.96671 36003 ft 434 kts 290°
2026-05-05 18:35 49.61675 14.87976 36003 ft 434 kts 290°
2026-05-05 18:35 49.63770 14.79231 36006 ft 433 kts 290°
2026-05-05 18:36 49.65848 14.70538 36004 ft 433 kts 290°
2026-05-05 18:36 49.67926 14.61777 36002 ft 433 kts 290°
2026-05-05 18:37 49.69988 14.53021 35999 ft 433 kts 290°
2026-05-05 18:37 49.72033 14.44333 35998 ft 433 kts 290°
2026-05-05 18:38 49.74093 14.35554 36001 ft 432 kts 290°
2026-05-05 18:38 49.76130 14.26837 36002 ft 432 kts 290°
2026-05-05 18:39 49.78154 14.18097 36004 ft 433 kts 289°
2026-05-05 18:39 49.80192 14.09294 35999 ft 433 kts 290°
2026-05-05 18:40 49.82209 14.00559 36003 ft 433 kts 289°
2026-05-05 18:40 49.84225 13.91753 36006 ft 433 kts 289°
2026-05-05 18:41 49.86235 13.82943 36008 ft 433 kts 289°
2026-05-05 18:41 49.88230 13.74168 36006 ft 433 kts 289°
2026-05-05 18:42 49.90235 13.65335 36009 ft 433 kts 289°
2026-05-05 18:42 49.92237 13.56492 36010 ft 433 kts 289°
2026-05-05 18:43 49.94213 13.47704 36014 ft 433 kts 289°
2026-05-05 18:43 49.96190 13.38853 36008 ft 433 kts 289°
2026-05-05 18:44 49.98154 13.30021 36011 ft 433 kts 289°
2026-05-05 18:44 50.00120 13.21177 36010 ft 433 kts 289°
2026-05-05 18:45 50.02086 13.12297 36007 ft 434 kts 289°
2026-05-05 18:45 50.04041 13.03417 36004 ft 434 kts 289°
2026-05-05 18:46 50.05978 12.94562 35998 ft 434 kts 289°
2026-05-05 18:46 50.07918 12.85649 35999 ft 434 kts 289°
2026-05-05 18:47 50.09845 12.76782 36000 ft 434 kts 289°
2026-05-05 18:47 50.11782 12.67849 35995 ft 434 kts 288°
2026-05-05 18:48 50.13700 12.58954 35997 ft 434 kts 288°
2026-05-05 18:48 50.15599 12.50084 36353 ft 434 kts 288°
2026-05-05 18:49 50.17500 12.41142 35915 ft 434 kts 285°
2026-05-05 18:49 50.18442 12.36700 35746 ft 436 kts 285°
2026-05-05 18:49 50.19402 12.32172 35793 ft 439 kts 285°
2026-05-05 18:50 50.21308 12.23148 35791 ft 440 kts 285°
2026-05-05 18:50 50.23219 12.14022 35822 ft 440 kts 284°
2026-05-05 18:51 50.25102 12.04967 35831 ft 440 kts 284°
2026-05-05 18:51 50.26976 11.95904 35844 ft 438 kts 284°
2026-05-05 18:52 50.28844 11.86841 35840 ft 438 kts 284°
2026-05-05 18:52 50.30706 11.77762 35834 ft 438 kts 284°
2026-05-05 18:53 50.32555 11.68719 35831 ft 438 kts 284°
2026-05-05 18:53 50.34411 11.59624 35840 ft 438 kts 284°
2026-05-05 18:54 50.36257 11.50497 35808 ft 439 kts 284°
2026-05-05 18:54 50.38088 11.41402 35794 ft 440 kts 284°
2026-05-05 18:55 50.39932 11.32212 35787 ft 441 kts 284°
2026-05-05 18:55 50.41753 11.23068 35790 ft 441 kts 284°
2026-05-05 18:56 50.43590 11.13837 35821 ft 442 kts 283°
2026-05-05 18:56 50.45422 11.04606 35794 ft 443 kts 283°
2026-05-05 18:57 50.47238 10.95381 35794 ft 444 kts 283°
2026-05-05 18:57 50.49056 10.86082 35797 ft 445 kts 283°
2026-05-05 18:58 50.50861 10.76818 35798 ft 445 kts 283°
2026-05-05 18:58 50.52673 10.67480 35823 ft 446 kts 283°
2026-05-05 18:59 50.54465 10.58188 35808 ft 446 kts 283°
2026-05-05 18:59 50.56259 10.48830 35809 ft 446 kts 283°
2026-05-05 19:00 50.58050 10.39488 35807 ft 447 kts 283°
2026-05-05 19:00 50.59825 10.30165 35807 ft 447 kts 283°
2026-05-05 19:01 50.61611 10.20772 35818 ft 448 kts 283°
2026-05-05 19:01 50.63428 10.11365 35810 ft 448 kts 283°
2026-05-05 19:02 50.64945 10.03515 35806 ft 449 kts 283°
2026-05-05 19:02 50.66743 9.94114 35808 ft 449 kts 283°
2026-05-05 19:03 50.68523 9.84718 35807 ft 449 kts 283°
2026-05-05 19:03 50.70318 9.75210 35821 ft 450 kts 283°
2026-05-05 19:04 50.72088 9.65778 35814 ft 451 kts 283°
2026-05-05 19:04 50.73873 9.56251 35814 ft 451 kts 283°
2026-05-05 19:05 50.75642 9.46788 35817 ft 451 kts 282°
2026-05-05 19:05 50.77407 9.37259 35838 ft 451 kts 282°
2026-05-05 19:06 50.79154 9.27792 35822 ft 451 kts 282°
2026-05-05 19:06 50.80901 9.18242 35816 ft 451 kts 282°
2026-05-05 19:07 50.82627 9.08741 35819 ft 451 kts 282°
2026-05-05 19:07 50.84349 8.99247 35820 ft 450 kts 282°
2026-05-05 19:08 50.86074 8.89688 35809 ft 450 kts 282°
2026-05-05 19:08 50.87796 8.80123 35810 ft 450 kts 282°
2026-05-05 19:09 50.89496 8.70614 35801 ft 450 kts 282°
2026-05-05 19:09 50.91193 8.61037 35818 ft 451 kts 282°
2026-05-05 19:10 50.92877 8.51502 35817 ft 451 kts 282°
2026-05-05 19:10 50.94568 8.41916 35819 ft 451 kts 282°
2026-05-05 19:11 50.96249 8.32306 35813 ft 451 kts 282°
2026-05-05 19:11 50.97919 8.22699 35811 ft 451 kts 282°
2026-05-05 19:12 50.99569 8.13121 35815 ft 451 kts 282°
2026-05-05 19:12 51.01223 8.03479 35837 ft 452 kts 282°
2026-05-05 19:13 51.02867 7.93885 35834 ft 452 kts 282°
2026-05-05 19:13 51.04515 7.84220 35830 ft 452 kts 282°
2026-05-05 19:14 51.06146 7.74562 35827 ft 452 kts 281°
2026-05-05 19:14 51.07752 7.64970 35828 ft 452 kts 281°
2026-05-05 19:15 51.09374 7.55297 35848 ft 452 kts 281°
2026-05-05 19:15 51.10994 7.45598 35843 ft 452 kts 281°
2026-05-05 19:16 51.12587 7.35965 35849 ft 451 kts 281°
2026-05-05 19:16 51.14174 7.26275 35847 ft 451 kts 281°
2026-05-05 19:17 51.15747 7.16647 35849 ft 451 kts 281°
2026-05-05 19:17 51.17326 7.06962 35862 ft 451 kts 281°
2026-05-05 19:18 51.18878 6.97331 35857 ft 451 kts 281°
2026-05-05 19:18 51.20440 6.87625 35853 ft 451 kts 281°
2026-05-05 19:19 51.21969 6.78066 35851 ft 451 kts 281°
2026-05-05 19:19 51.23515 6.68345 35851 ft 451 kts 281°
2026-05-05 19:20 51.25046 6.58606 35862 ft 451 kts 281°
2026-05-05 19:20 51.26567 6.48913 35884 ft 451 kts 281°
2026-05-05 19:21 51.28087 6.39203 35880 ft 451 kts 281°
2026-05-05 19:21 51.29597 6.29461 35879 ft 451 kts 280°
2026-05-05 19:22 51.31095 6.19704 35892 ft 451 kts 280°
2026-05-05 19:22 51.32586 6.09992 35886 ft 451 kts 280°
2026-05-05 19:23 51.34069 6.00239 35881 ft 450 kts 280°
2026-05-05 19:23 51.35537 5.90551 35881 ft 450 kts 280°
2026-05-05 19:24 51.37002 5.80800 35887 ft 450 kts 280°
2026-05-05 19:24 51.38455 5.71043 35895 ft 449 kts 280°
2026-05-05 19:25 51.39906 5.61280 35883 ft 449 kts 280°
2026-05-05 19:25 51.41340 5.51618 35876 ft 449 kts 280°
2026-05-05 19:26 51.42775 5.41875 35873 ft 449 kts 280°
2026-05-05 19:26 51.44196 5.32122 35869 ft 448 kts 280°
2026-05-05 19:27 51.45601 5.22415 35878 ft 448 kts 280°
2026-05-05 19:27 51.47002 5.12672 35914 ft 447 kts 279°
2026-05-05 19:28 51.48390 5.02976 35915 ft 446 kts 279°
2026-05-05 19:28 51.49772 4.93282 35912 ft 445 kts 279°
2026-05-05 19:29 51.51138 4.83587 35908 ft 444 kts 279°
2026-05-05 19:29 51.52485 4.73977 35915 ft 443 kts 279°
2026-05-05 19:30 51.53840 4.64288 35904 ft 443 kts 279°
2026-05-05 19:30 51.55180 4.54623 35904 ft 443 kts 279°
2026-05-05 19:31 51.56504 4.44977 35902 ft 442 kts 279°
2026-05-05 19:31 51.57817 4.35331 35897 ft 442 kts 279°
2026-05-05 19:32 51.59124 4.25691 35893 ft 442 kts 279°
2026-05-05 19:32 51.60434 4.16046 35890 ft 442 kts 279°
2026-05-05 19:33 51.61737 4.06361 35883 ft 442 kts 279°
2026-05-05 19:33 51.63023 3.96664 35887 ft 442 kts 279°
2026-05-05 19:34 51.64294 3.87027 35885 ft 442 kts 279°
2026-05-05 19:35 51.66206 3.72540 35900 ft 442 kts 279°
2026-05-05 19:35 51.67469 3.62832 35909 ft 442 kts 279°
2026-05-05 19:36 51.68717 3.53109 35909 ft 442 kts 278°
2026-05-05 19:36 51.69960 3.43403 35911 ft 442 kts 278°
2026-05-05 19:37 51.71195 3.33723 35917 ft 442 kts 278°
2026-05-05 19:37 51.72428 3.23973 35931 ft 442 kts 277°
2026-05-05 19:38 51.72968 3.14254 35927 ft 435 kts 262°
2026-05-05 19:38 51.72186 3.04576 35543 ft 434 kts 258°
2026-05-05 19:38 51.71765 2.99712 34578 ft 440 kts 259°
2026-05-05 19:39 51.71348 2.94871 33778 ft 441 kts 258°
2026-05-05 19:39 51.70922 2.89950 32811 ft 444 kts 258°
2026-05-05 19:39 51.70494 2.85041 32225 ft 438 kts 258°
2026-05-05 19:39 51.70068 2.80195 31628 ft 433 kts 259°
2026-05-05 19:40 51.69643 2.75404 31037 ft 428 kts 259°
2026-05-05 19:40 51.69217 2.70666 30466 ft 425 kts 258°
2026-05-05 19:40 51.68799 2.66027 29887 ft 421 kts 258°
2026-05-05 19:40 51.68382 2.61365 29299 ft 416 kts 259°
2026-05-05 19:41 51.67972 2.56764 28744 ft 411 kts 258°
2026-05-05 19:41 51.67565 2.52215 28190 ft 406 kts 259°
2026-05-05 19:41 51.67167 2.47786 27688 ft 402 kts 258°
2026-05-05 19:41 51.66763 2.43336 27166 ft 397 kts 257°
2026-05-05 19:42 51.66360 2.38950 26666 ft 393 kts 260°
2026-05-05 19:42 51.65957 2.34608 26166 ft 389 kts 260°
2026-05-05 19:42 51.65560 2.30344 25688 ft 386 kts 261°
2026-05-05 19:42 51.65166 2.26098 25226 ft 382 kts 260°
2026-05-05 19:43 51.64771 2.21879 24759 ft 379 kts 261°
2026-05-05 19:43 51.64381 2.17739 24310 ft 375 kts 261°
2026-05-05 19:43 51.63993 2.13597 23865 ft 372 kts 261°
2026-05-05 19:43 51.63606 2.09481 23382 ft 370 kts 261°
2026-05-05 19:44 51.63226 2.05407 22913 ft 366 kts 261°
2026-05-05 19:44 51.62851 2.01382 22468 ft 361 kts 261°
2026-05-05 19:44 51.62484 1.97438 22033 ft 357 kts 262°
2026-05-05 19:44 51.62118 1.93488 21585 ft 354 kts 262°
2026-05-05 19:45 51.61752 1.89566 21127 ft 352 kts 261°
2026-05-05 19:45 51.61171 1.85744 20670 ft 350 kts 250°
2026-05-05 19:45 51.60541 1.83346 20364 ft 349 kts 243°
2026-05-05 19:45 51.58753 1.79067 19744 ft 348 kts 229°
2026-05-05 19:46 51.57146 1.76155 19281 ft 348 kts 228°
2026-05-05 19:46 51.56077 1.74217 18979 ft 347 kts 228°
2026-05-05 19:46 51.54471 1.71302 18522 ft 347 kts 228°
2026-05-05 19:46 51.52345 1.67444 17878 ft 347 kts 229°
2026-05-05 19:47 51.51264 1.65479 17562 ft 346 kts 228°
2026-05-05 19:47 51.49736 1.62560 17174 ft 343 kts 236°
2026-05-05 19:47 51.48572 1.59237 16596 ft 344 kts 243°
2026-05-05 19:47 51.47122 1.54661 15875 ft 347 kts 244°
2026-05-05 19:48 51.46396 1.52319 15558 ft 346 kts 244°
2026-05-05 19:48 51.45346 1.48903 15116 ft 345 kts 244°
2026-05-05 19:48 51.44290 1.45456 14716 ft 342 kts 244°
2026-05-05 19:48 51.43242 1.42039 14331 ft 339 kts 244°
2026-05-05 19:49 51.42202 1.38666 14003 ft 336 kts 244°
2026-05-05 19:49 51.41157 1.35306 13932 ft 336 kts 244°
2026-05-05 19:49 51.40124 1.31992 13949 ft 337 kts 244°
2026-05-05 19:49 51.39076 1.28635 13950 ft 337 kts 244°
2026-05-05 19:50 51.38023 1.25259 13950 ft 337 kts 244°
2026-05-05 19:50 51.36975 1.21903 13947 ft 337 kts 244°
2026-05-05 19:50 51.35942 1.18593 13948 ft 337 kts 244°
2026-05-05 19:50 51.34892 1.15231 13948 ft 337 kts 244°
2026-05-05 19:51 51.33840 1.11872 13950 ft 336 kts 244°
2026-05-05 19:51 51.32788 1.08522 13952 ft 338 kts 243°
2026-05-05 19:51 51.31732 1.05169 13950 ft 342 kts 243°
2026-05-05 19:51 51.30662 1.01772 13949 ft 342 kts 243°
2026-05-05 19:52 51.29592 0.98380 13886 ft 340 kts 243°
2026-05-05 19:52 51.28525 0.95003 13425 ft 338 kts 244°
2026-05-05 19:52 51.27479 0.91694 13014 ft 335 kts 244°
2026-05-05 19:52 51.26424 0.88372 12599 ft 332 kts 244°
2026-05-05 19:53 51.25382 0.85088 12191 ft 330 kts 244°
2026-05-05 19:53 51.24349 0.81837 11768 ft 327 kts 244°
2026-05-05 19:53 51.23334 0.78643 11351 ft 325 kts 244°
2026-05-05 19:53 51.22309 0.75427 10923 ft 323 kts 244°
2026-05-05 19:54 51.21292 0.72233 10502 ft 321 kts 244°
2026-05-05 19:54 51.20282 0.69064 10106 ft 318 kts 244°
2026-05-05 19:54 51.19310 0.66023 9886 ft 301 kts 245°
2026-05-05 19:54 51.18379 0.63119 9368 ft 292 kts 245°
2026-05-05 19:55 51.17456 0.60246 9138 ft 289 kts 245°
2026-05-05 19:55 51.16537 0.57381 9142 ft 289 kts 245°
2026-05-05 19:55 51.15620 0.54523 9133 ft 289 kts 244°
2026-05-05 19:55 51.14712 0.51701 9145 ft 290 kts 244°
2026-05-05 19:56 51.13792 0.48841 9146 ft 290 kts 245°
2026-05-05 19:56 51.12872 0.45983 9137 ft 289 kts 244°
2026-05-05 19:56 51.11949 0.43119 9138 ft 288 kts 244°
2026-05-05 19:56 51.11044 0.40318 9143 ft 288 kts 244°
2026-05-05 19:57 51.10126 0.37478 9108 ft 288 kts 244°
2026-05-05 19:57 51.09213 0.34660 8720 ft 286 kts 244°
2026-05-05 19:57 51.08302 0.31852 8285 ft 284 kts 244°
2026-05-05 19:57 51.07407 0.29094 8088 ft 283 kts 245°
2026-05-05 19:58 51.06491 0.26276 8092 ft 284 kts 244°
2026-05-05 19:58 51.05587 0.23505 8081 ft 284 kts 244°
2026-05-05 19:58 51.04725 0.20679 8067 ft 283 kts 253°
2026-05-05 19:58 51.04254 0.17657 8059 ft 281 kts 261°
2026-05-05 19:59 51.03876 0.14598 8049 ft 281 kts 261°
2026-05-05 19:59 51.03511 0.11562 8027 ft 282 kts 261°
2026-05-05 19:59 51.03144 0.08512 8028 ft 281 kts 261°
2026-05-05 19:59 51.02777 0.05457 8005 ft 281 kts 261°
2026-05-05 20:00 51.02408 0.02399 8000 ft 281 kts 261°
2026-05-05 20:00 51.02042 -0.00627 7943 ft 281 kts 261°
2026-05-05 20:00 51.01671 -0.03694 7951 ft 281 kts 261°
2026-05-05 20:00 51.01299 -0.06757 7951 ft 282 kts 261°
2026-05-05 20:01 51.00932 -0.09775 7874 ft 280 kts 261°
2026-05-05 20:01 51.00564 -0.12797 7439 ft 278 kts 261°
2026-05-05 20:01 51.00196 -0.15817 7006 ft 277 kts 261°
2026-05-05 20:01 50.99827 -0.18822 6577 ft 275 kts 261°
2026-05-05 20:02 50.99461 -0.21798 6137 ft 274 kts 261°
2026-05-05 20:02 50.99101 -0.24725 5687 ft 272 kts 261°
2026-05-05 20:02 50.98738 -0.27675 5236 ft 271 kts 261°
2026-05-05 20:02 50.98377 -0.30612 4785 ft 270 kts 261°
2026-05-05 20:03 50.98018 -0.33536 4325 ft 268 kts 261°
2026-05-05 20:03 50.97671 -0.36404 3876 ft 267 kts 261°
2026-05-05 20:03 50.97379 -0.39304 3430 ft 264 kts 270°
2026-05-05 20:03 50.97766 -0.42067 3055 ft 255 kts 301°
2026-05-05 20:04 50.98946 -0.44035 3003 ft 239 kts 332°
2026-05-05 20:04 51.00437 -0.44956 3016 ft 226 kts 345°
2026-05-05 20:04 51.01952 -0.45635 3016 ft 224 kts 346°
2026-05-05 20:04 51.03441 -0.46280 3010 ft 224 kts 346°
2026-05-05 20:05 51.04950 -0.46926 3013 ft 224 kts 346°
2026-05-05 20:05 51.06453 -0.47571 3013 ft 224 kts 346°
2026-05-05 20:05 51.07960 -0.48200 3011 ft 223 kts 350°
2026-05-05 20:05 51.09470 -0.48054 3007 ft 221 kts 21°
2026-05-05 20:06 51.10703 -0.46645 3009 ft 217 kts 52°
2026-05-05 20:06 51.11273 -0.44499 3005 ft 209 kts 76°
2026-05-05 20:06 51.11584 -0.42244 2910 ft 206 kts 76°
2026-05-05 20:06 51.11892 -0.40024 2678 ft 204 kts 76°
2026-05-05 20:07 51.12195 -0.37854 2417 ft 202 kts 76°
2026-05-05 20:07 51.12500 -0.35674 2143 ft 201 kts 77°
2026-05-05 20:07 51.12802 -0.33509 1871 ft 196 kts 77°
2026-05-05 20:07 51.13089 -0.31455 1647 ft 184 kts 78°
2026-05-05 20:08 51.13357 -0.29534 1367 ft 170 kts 77°
2026-05-05 20:08 51.13597 -0.27812 1149 ft 150 kts 78°
2026-05-05 20:08 51.13807 -0.26301 946 ft 136 kts 78°
2026-05-05 20:08 51.14006 -0.24864 765 ft 129 kts 77°
2026-05-05 20:09 51.14198 -0.23486 611 ft 126 kts 77°
2026-05-05 20:09 51.14383 -0.22153 415 ft 122 kts 77°
2026-05-05 20:09 51.14571 -0.20821 264 ft 123 kts 77°
2026-05-05 20:09 51.14742 -0.19559 216 ft 102 kts 77°
2026-05-05 20:10 51.14855 -0.18719 207 ft 53 kts 78°
2026-05-05 20:10 51.14921 -0.18253 206 ft 39 kts 77°
2026-05-05 20:10 51.14979 -0.17848 210 ft 36 kts 77°
2026-05-05 20:10 51.15028 -0.17500 206 ft 30 kts 74°
2026-05-05 20:11 51.15089 -0.17284 212 ft 12 kts 62°
2026-05-05 20:11 51.15132 -0.17210 208 ft 4 kts 20°
2026-05-05 20:11 51.15133 -0.17210 208 ft 0 kts 18°
2026-05-05 20:11 51.15154 -0.17213 207 ft 9 kts 343°
2026-05-05 20:12 51.15205 -0.17271 207 ft 9 kts 323°
2026-05-05 20:12 51.15252 -0.17325 210 ft 9 kts 326°
2026-05-05 20:12 51.15339 -0.17366 204 ft 15 kts 349°
2026-05-05 20:12 51.15438 -0.17399 206 ft 13 kts 347°
2026-05-05 20:13 51.15518 -0.17427 204 ft 11 kts 347°
2026-05-05 20:13 51.15591 -0.17453 213 ft 10 kts 348°
2026-05-05 20:13 51.15657 -0.17476 209 ft 9 kts 347°
2026-05-05 20:13 51.15716 -0.17496 204 ft 8 kts 349°
2026-05-05 20:14 51.15768 -0.17447 207 ft 10 kts 67°
2026-05-05 20:14 51.15787 -0.17323 204 ft 11 kts 77°
2026-05-05 20:14 51.15802 -0.17238 210 ft 6 kts 53°
2026-05-05 20:14 51.15837 -0.17230 204 ft 5 kts 353°
2026-05-05 20:15 51.15866 -0.17244 207 ft 3 kts 346°
2026-05-05 20:15 51.15879 -0.17249 213 ft 1 kts 347°
2026-05-05 20:15 51.15881 -0.17249 212 ft 0 kts 347°